Weather History for Curtin, WE

Change the Weather History Date:

Tuesday, March 5, 2013

  Actual Average Record
Temperature  
Mean Temperature 86 °F -  
Max Temperature 93 °F - - ()
Min Temperature 78 °F - - ()
Cooling Degree Days 20    
Growing Degree Days 36 (Base 50)    
Moisture  
Dew Point 75 °F    
Average Humidity 76    
Maximum Humidity 94    
Minimum Humidity 46    
Precipitation  
Precipitation 0.00 in - - ()
Sea Level Pressure  
Sea Level Pressure 29.70 in    
Wind  
Wind Speed 4 mph ()    
Max Wind Speed 13 mph    
Max Gust Speed 25 mph    
T = Trace of Precipitation, MM = Missing Value Source: Averaged Metar Reports

Daily Weather History Graph

Daily Weather History Graph

Search for Another Location

Airport:

Trip Planner

Search our weather history database for the weather conditions in past years. The results will help you decide how hot, cold, wet, or windy it might be!

Date:

Astronomy

Mar. 05, 2013 Rise Set
Actual Time 5:44 AM AWST 6:07 PM AWST
Civil Twilight 5:23 AM AWST 6:29 PM AWST
Nautical Twilight 4:57 AM AWST 6:54 PM AWST
Astronomical Twilight 4:31 AM AWST 7:20 PM AWST
Moon No Moon Rise 12:28 PM AWST (3/5)
Length of Visible Light 13h 05m
Length of Day
12h 22m
Waning Gibbous, 47% of the Moon is Illuminated
Mar 5
Waning Gibbous
Mar 12
New
Mar 20
First Quarter
Mar 27
Full
Apr 3
Last Quarter

Hourly Weather History & Observations

Time (AWST) Temp. Heat Index Dew Point Humidity Pressure Visibility Wind Dir Wind Speed Gust Speed Precip Events Conditions
12:00 AM 79 °F - 76 °F 86% 29.68 in - NNW 3.5 mph - -  
12:00 AM 78.8 °F - 75.2 °F 89% 29.68 in - NNW 3.5 mph - N/A   Unknown
1:00 AM 78.8 °F - 75.2 °F 89% 29.68 in - NW 4.6 mph - N/A   Unknown
2:00 AM 78.8 °F - 75.2 °F 89% 29.65 in - WNW 3.5 mph - N/A   Unknown
3:00 AM 79 °F - 76 °F 88% 29.66 in - West 3.5 mph - -  
3:00 AM 78.8 °F - 77.0 °F 94% 29.65 in - West 3.5 mph - N/A   Unknown
4:00 AM 78.8 °F - 77.0 °F 94% 29.68 in - Calm Calm - N/A   Unknown
5:00 AM 78.8 °F - 77.0 °F 94% 29.71 in - NNW 3.5 mph - N/A   Unknown
6:00 AM 79 °F - 77 °F 92% 29.72 in - Calm Calm - -  
6:00 AM 78.8 °F - 77.0 °F 94% 29.71 in - Calm Calm - N/A   Unknown
7:00 AM 80.6 °F 88.1 °F 78.8 °F 94% 29.74 in - Calm Calm - N/A   Unknown
8:00 AM 80.6 °F 88.1 °F 78.8 °F 94% 29.77 in - Calm Calm - N/A   Unknown
9:00 AM 81 °F - 74 °F 73% 29.80 in - ENE 12.7 mph - -  
9:00 AM 80.6 °F 85.4 °F 73.4 °F 79% 29.80 in - ENE 12.7 mph - N/A   Unknown
10:00 AM 86.0 °F 95.1 °F 75.2 °F 70% 29.80 in - NNE 11.5 mph - N/A   Unknown
11:00 AM 89.6 °F 98.2 °F 73.4 °F 59% 29.74 in - North 10.4 mph - N/A   Unknown
12:00 PM 92 °F - 74 °F 46% 29.70 in - North 9.2 mph - -  
12:00 PM 91.4 °F 100.1 °F 73.4 °F 55% 29.71 in - North 9.2 mph - N/A   Unknown
1:00 PM 91.4 °F 98.4 °F 71.6 °F 52% 29.68 in - NNW 10.4 mph - N/A   Unknown
2:00 PM 89.6 °F 98.2 °F 73.4 °F 59% 29.65 in - WNW 8.1 mph - N/A   Unknown
3:00 PM 90 °F - 74 °F 51% 29.65 in - NW 6.9 mph - -  
3:00 PM 89.6 °F 98.2 °F 73.4 °F 59% 29.65 in - NW 6.9 mph - N/A   Unknown
4:00 PM 91.4 °F 100.1 °F 73.4 °F 55% 29.65 in - NW 6.9 mph 25.3 mph N/A   Unknown
5:00 PM 91.4 °F 102.5 °F 75.2 °F 59% 29.65 in - North 8.1 mph - N/A   Unknown
6:00 PM 87.8 °F 97.6 °F 75.2 °F 66% 29.65 in - North 5.8 mph - N/A   Unknown
7:00 PM 86.0 °F 95.1 °F 75.2 °F 70% 29.68 in - NNW 1.2 mph - N/A   Unknown
8:00 PM 84.2 °F 92.3 °F 75.2 °F 74% 29.71 in - North 5.8 mph - N/A   Unknown
9:00 PM 82 °F - 75 °F 74% 29.72 in - North 3.5 mph - -  
9:00 PM 82.4 °F 89.5 °F 75.2 °F 79% 29.71 in - North 3.5 mph - N/A   Unknown
10:00 PM 80.6 °F 86.2 °F 75.2 °F 84% 29.74 in - North 3.5 mph - N/A   Unknown
11:00 PM 80.6 °F 87.1 °F 77.0 °F 89% 29.71 in - North 3.5 mph - N/A   Unknown